www.pogodaiklimat.ru

Погода и климат >> Архив погоды >> Иран >> Бирдженд


ПОГОДА в Бирдженде

  • Прогноз погоды в Бирдженде
  • Монитор погоды в Бирдженде

АРХИВ ПОГОДЫ в Бирдженде

Время (UTC), дата Ветер
(напр.,м/с)
 
Видим.   Явления Облачность Т
(С)
Тd
(С)
f
(%)
Тe
(С)
Тes
(С)
Комфортность P
(гПа)
Po
(гПа)
Тmin
(С)
Tmax
(С)
R
(мм)
R24
(мм)
S
(см)
09 13.08 СВ 6 10 км ясно +31.6 +0.9 14 +29 +36 жарко 1000.5 845.8
12 13.08 СВ 7 10 км ясно +31.8 -0.1 13 +29 +31 жарко 1000.8 845.7
18 13.08 В 5 10 км ясно +22.0 0.0 23 +21 +21 комфорт 1004.6 848.2
21 13.08 В 5 10 км ясно +20.0 +1.9 30 +20 +20 1004.0 848.4
00 14.08 В 2 10 км ясно +15.7 +1.5 38 +16 +16 1004.3 847.7
03 14.08 ЮВ 2 10 км ясно +19.2 +3.0 34 +20 +22 1006.1 848.8 +15.5
06 14.08 СВ 7 10 км ясно +26.4 +1.0 19 +25 +29 комфорт 1005.3 848.7
09 14.08 С 2 10 км ясно +29.4 -0.1 15 +27 +45 жарко 1004.1 847.9 666
12 14.08 С 6 10 км ясно +30.1 -3.4 11 +27 +29 жарко 1004.0 846.9
15 14.08 СВ 6 10 км ясно +26.0 -1.8 16 +24 +24 комфорт 1005.7 848.2 +31.2
18 14.08 В 3 10 км ясно +21.1 -0.4 24 +21 +21 комфорт 1007.0 849.9
21 14.08 В 5 10 км ясно +18.8 -1.7 25 +19 +19 1005.8 849.0
00 15.08 В 5 10 км ясно +17.4 -3.8 23 +17 +17 1005.6 848.6
03 15.08 СВ 2 10 км ясно +19.3 -2.9 22 +20 +22 1007.6 849.8 +15.3
06 15.08 ЮВ 3 10 км ясно +26.0 -3.5 14 +24 +36 комфорт 1006.1 849.0
09 15.08 С 4 10 км ясно +32.6 -11.9 5 +28 +41 жарко 1003.2 847.4
12 15.08 С 6 12 км ясно +31.8 -6.5 8 +28 +30 жарко 1002.6 846.4
15 15.08 С 5 12 км ясно +27.5 -12.9 6 +24 +24 комфорт 1003.9 846.9 +33.3
18 15.08 ЮВ 2 10 км ясно +21.4 -4.0 18 +20 +20 1005.2 848.3
21 15.08 штиль 0 10 км ясно +17.6 -4.1 22 +18 +18 1004.5 848.4
00 16.08 СВ 2 10 км ясно +15.6 -4.2 25 +16 +16 1004.2 847.4
03 16.08 В 2 10 км ясно +16.6 -4.2 24 +17 +19 1005.7 847.9 +12.8
06 16.08 ЮВ 3 10 км ясно +26.7 -5.0 12 +24 +37 комфорт 1004.3 847.7
09 16.08 С 3 10 км ясно +31.0 -8.9 7 +27 +42 жарко 1002.9 846.5
12 16.08 СВ 7 10 км ясно +30.5 -8.8 7 +26 +28 жарко 1003.0 846.0
15 16.08 СВ 6 10 км ясно +26.8 -8.5 9 +24 +24 комфорт 1003.7 846.0 +32.3
18 16.08 В 4 10 км ясно +20.1 -7.3 15 +20 +20 1004.6 847.5
21 16.08 СВ 4 10 км ясно +17.1 -6.6 19 +17 +17 1004.5 847.8
00 17.08 ЮВ 2 10 км ясно +13.5 -8.0 22 +13 +13 1004.7 846.9
03 17.08 штиль 0 10 км ясно +16.7 -7.1 19 +17 +20 1004.7 846.9 +13.1
06 17.08 штиль 0 15 км ясно +27.1 -10.0 8 +24 +44 комфорт 1003.1 846.3
09 17.08 В 3 15 км ясно +33.4 -17.6 3 +29 +44 жарко 1000.2 844.6 666
12 17.08 В 7 15 км ясно +34.9 -22.1 2 +30 +32 жарко 999.4 843.4
15 17.08 СВ 5 15 км ясно +29.3 -16.4 4 +25 +25 комфорт 1001.6 844.7 +35.7
18 17.08 В 5 12 км ясно +22.2 -9.5 11 +20 +20 1002.3 846.2
21 17.08 В 5 10 км ясно +20.5 -6.2 16 +20 +20 1001.1 846.3
00 18.08 ЮВ 4 10 км ясно +13.4 -12.2 16 +12 +12 1002.7 846.2
03 18.08 ЮВ 3 12 км ясно +16.1 -11.6 14 +16 +18 1004.7 847.2 +11.1
06 18.08 ЮВ 2 12 км ясно +30.4 -13.2 5 +26 +41 жарко 1002.5 847.1
09 18.08 З 4 15 км ясно +35.3 -21.1 2 +30 +43 жарко 1000.4 845.9
12 18.08 С 6 15 км ясно +35.9 -16.4 3 +31 +34 жарко 1001.4 845.3
15 18.08 СВ 5 12 км ясно +29.9 -11.4 6 +26 +26 жарко 1003.6 846.4 +37.1
18 18.08 В 6 10 км ясно +23.1 -6.7 13 +21 +21 комфорт 1003.7 848.4
21 18.08 В 6 10 км ясно +20.2 -4.2 19 +20 +20 1003.8 849.0
00 19.08 СВ 7 10 км ясно +18.7 -4.2 21 +18 +18 1003.3 848.4
03 19.08 ЮВ 4 10 км ясно +15.9 -7.2 20 +15 +17 1006.4 848.9 +11.7
06 19.08 В 5 10 км ясно +27.2 -7.3 10 +24 +32 комфорт 1005.5 849.1
09 19.08 В 5 10 км ясно +32.0 -9.7 6 +28 +37 жарко 1003.4 847.8
12 19.08 СВ 7 10 км ясно +33.5 -11.2 5 +29 +31 жарко 1002.3 846.9
15 19.08 СВ 7 10 км ясно +27.0 -8.5 9 +24 +24 комфорт 1006.5 848.2 +34.2
18 19.08 В 2 10 км ясно +22.4 -5.7 15 +21 +21 комфорт 1007.2 850.4
21 19.08 СВ 7 10 км ясно +19.8 -3.1 21 +19 +19 1005.3 849.4
00 20.08 В 4 10 км ясно +17.4 -3.4 24 +17 +17 1005.0 848.9
03 20.08 В 4 10 км ясно +19.7 -3.7 20 +20 +21 1007.3 849.9 +13.0

 

Местоположение метеостанции Бирдженд (Иран): широта 32.87 долгота 59.20 высота над уровнем моря 1491 м.

В архиве по умолчанию представлена погода в Бирдженде за последнюю неделю. Архивные данные за месяц целиком и за предыдущие месяцы, начиная с января 2011 года, Вы можете получить, выбрав интересующий диапазон дат из раскрывающегося списка и нажав кнопку "Ввод!".


*Определитесь, кто Вы:
робот инопланетянин человек

Внимание! Время в таблицах - всемирное. Для получения местного времени необходимо прибавить поправку, которая равна 3.5 ч.

Смотрите также архив погоды в соседних городах и на ближайших метеорологических станциях:

Погода в Фердоусе (Иран) (160 км)
Погода в Нехбандане (Иран) (168 км)
Погода в Табасе (Иран) (227 км)
Погода в Торбете-Хейдерие (Иран) (267 км)
Погода в Кашмаре (Иран) (268 км)
Погода в Заболе (Иран) (295 км)
Погода в Герате (Афганистан) (318 км)
Погода в Кермане (Иран) (360 км)
Погода в Мешхеде (Иран) (380 км)
Погода в Серхетабаде (Марыйский велаят, Туркменистан) (395 км)

Пояснения к столбцам:

Ветер - указаны скорость ветра в м/с - средняя за 10 мин, порывы в срок и между сроками (в фигурных скобках) и направление, откуда дует ветер: С - северный, СВ - северо-восточный, В - восточный, ЮВ - юго-восточный, Ю - южный, ЮЗ - юго-западный, З - западный, СЗ - северо-западный.
Видимость - горизонтальная дальность видимости в метрах или километрах. При видимости от 1 до 10 км при отсутствии осадков обычно наблюдается дымка, при ухудшении видимости до 1 км и менее - туман. В сухую погоду видимость может ухудшаться дымом, пылью или мглою.
Явления - указаны атмосферные явления, наблюдавшиеся в срок или в последний час перед сроком; фигурными скобками обозначены явления, наблюдавшиеся между сроками (за 1-3 часа до срока); квадратными скобками обозначены град или гололедные отложения с указанием их диаметра в мм.
Облачность - указаны через наклонную черту общая и нижняя облачность в баллах и высота нижней границы облаков в метрах; квадратными скобками обозначены формы облаков: Ci - перистые, Cs - перисто-слоистые, Cc - перисто-кучевые, Ac - высококучевые, As - высокослоистые, Sc - слоисто-кучевые, Ns - слоисто-дождевые, Cu - кучевые, Cb - кучево-дождевые. Подробнее классификацию облаков см. в Атласе облаков (PDF).
T - Температура воздуха - температура, измеренная на высоте 2 м над землей.
Td - Температура точки росы - температура, при понижении до которой содержащийся в воздухе водяной пар достигнет насыщения.
f - Относительная влажность воздуха - влажноcть воздуха, измеренная на высоте 2 м над землей.
Te - Эффективная температура - температура, которую ощущает одетый по сезону человек в тени. Характеристика душности погоды. При расчете учитывается влияние влажности воздуха и скорости ветра на теплоощущения человека.
Tes - Эффективная температура на солнце - температура, которую ощущает человек, с поправкой на солнечный нагрев. Характеристика знойности погоды. Зависит от высоты солнца над горизонтом, облачности и скорости ветра. Ночью, в пасмурную погоду, а также при ветре 12 м/с и более поправка равна нулю.
P - Атмосферное давление - приведенное к уровню моря атмосферное давление.
Po - Атмосферное давление - измеренное на уровне метеостанции атмосферное давление.
Tmin - Минимальная температура - минимум температуры воздуха на высоте 2 м над землей.
Tmax - Максимальная температура - максимум температуры воздуха на высоте 2 м над землей.
R - Количество осадков - Количество выпавших осадков за период времени, мм. При наведении курсора мыши на число - период времени, за который выпало указанное количество осадков.
R24 - Количество осадков - Количество выпавших осадков за 24 часа, мм.
S - Снежный покров - Высота снежного покрова, см. При наведении курсора мыши на число - состояние снежного покрова и степень покрытия местности в баллах.